Home   Weather   Wittmund   Past weeks

Flag for Germany Past Weather in Wittmund, Lower Saxony, Germany — Yesterday and Last 2 Weeks

Now
48 °F

Partly sunny.


Feels Like: 42 °F
Forecast: 40 / 45 °F
Wind: 16 mph from West

Location: Wittmundhaven

Current Time: Dec 11, 2016 at 1:13:46 pm

Latest Report: Dec 11, 2016 at 12:20 pm


Visibility: N/A

Pressure: 29.98 "Hg

Humidity: 87%

Dew Point: 45 °F

Location of WittmundLocation

Past Weather in Wittmund — Graph

°F

Wittmund Temperature Yesterday

Maximum temperature yesterday: 50 °F (at 3:20 am)
Minimum temperature yesterday: 46 °F (at 5:20 am)
Average temperature yesterday: 47 °F

High & Low Weather Summary for the Past Weeks

 TemperatureHumidityPressure
High50 °F (Dec 9, 1:20 pm)100% (Nov 26, 11:20 am)30.57 "Hg (Nov 26, 11:20 am)
Low21 °F (Dec 5, 8:20 am)61% (Nov 28, 12:20 pm)29.83 "Hg (Dec 11, 3:20 am)
Average38 °F88%30.26 "Hg
* Reported Nov 26 11:20 am — Dec 11 11:20 am, Wittmund, Weather by CustomWeather, © 2016

Note: Actual official high and low records may vary slightly from our data, if they occured in-between our weather recording intervals... More about our weather records

Advertising

Wittmund Weather History for the Previous 24 Hours

Scroll right to see more
 ConditionsComfort  
Time TempWeatherWind HumidityBarometerVisibility
11:20 am
Sun, Dec 11
46 °FBroken clouds.17 mph87%29.98 "HgN/A
10:20 am46 °FScattered clouds.14 mph87%29.98 "HgN/A
9:20 am45 °FPassing clouds.14 mph93%29.95 "HgN/A
8:20 am45 °FPassing clouds.16 mph93%29.92 "HgN/A
7:20 am45 °FPassing clouds.12 mph93%29.92 "HgN/A
6:55 am45 °FLight rain. Passing clouds.10 mph93%29.92 "HgN/A
6:20 am45 °FQuite cool.12 mph93%29.89 "Hg5 mi
5:20 am45 °FQuite cool.13 mph93%29.86 "Hg3 mi
4:20 am45 °FQuite cool.10 mph93%29.83 "HgN/A
3:20 am45 °FQuite cool.3 mph100%29.83 "Hg3 mi
2:20 am45 °FQuite cool.3 mph100%29.86 "Hg2 mi
1:20 am46 °FCool.7 mph93%29.89 "Hg3 mi
12:20 am46 °FCool.8 mph100%29.92 "Hg3 mi
11:20 pm
Sat, Dec 10
46 °FCool.9 mph100%29.98 "Hg2 mi
10:20 pm46 °FCool.9 mph100%30.01 "Hg1 mi
9:20 pm46 °FCool.8 mph100%30.04 "Hg0 mi
8:20 pm46 °FCool.7 mph100%30.07 "Hg0 mi
7:20 pm46 °FCool.8 mph100%30.07 "Hg0 mi
6:20 pm48 °FCool.9 mph94%30.07 "Hg0 mi
5:20 pm48 °FCool.8 mph100%30.07 "Hg0 mi
4:20 pm48 °FCool.8 mph100%30.09 "Hg0 mi
3:20 pm48 °FFog.8 mph100%30.09 "Hg1 mi
2:20 pm48 °FFog.10 mph100%30.09 "Hg1 mi
1:20 pm48 °FFog.10 mph100%30.09 "Hg1 mi
Weather by CustomWeather, © 2016

See weather overviewHow to use our weather pages